NOAA 16 DEB, 42348

Orbit data source: Space-Track

NOAA 16 DEB, 42348 is space debris in LEO originally from a launch on Thu, 21 Sep 2000 UTC launched from the Air Force Western Test Range (AFWTR). Debris objects in space refer to the collection of defunct objects orbiting the Earth. Examples of debris include non-operational satellites, rocket bodies, and fragments generated from explosions, collisions, or faulty payload assembly.

Loading next visibility...
NOAA 16 DEB details
Identifier
42348, 2000-055QQ
Orbit
LEO
Last TLE update4 months ago
Origin
Flag of USNOAA (US)
ManufacturerUnknown
MissionSpacecraft
Bus & MotorUnknown
MassUnknown
Launch date (UTC)
2000-09-21 (24 years ago)
Launch vehicleUnknown
Launch site
Air Force Western Test Range (AFWTR)
Object type
Payload
Rocket body
Debris
Shape & HBRUnknown
Radar Cross SectionSmall (<0.1 m²)

Expand to show TLE details & history

TLE from 4 months ago
0 NOAA 16 DEB
1 42348U 00055QQ  24240.25456146  .00007809  00000-0  44805-2 0  9993
2 42348  98.7741 232.8470 0063054 357.8954   2.1941 14.08602735436202
Epoch: 2024-08-27T06:06Z
Definitive object data (Epoch: 2024-08-27T06:06:34.11Z)
Latitude-0.00006°
Longitude165.23162°
Altitude821.413 km
Speed7.466 km/s
True Right ascension15h 31m 23s
True Declination0° 00' 00"
Sunlit
Object was in daylight at TLE epoch
Visualization TLE readout
Latitude54.88441°
Longitude101.74439°
Altitude849.706 km
Speed7.442 km/s
Apparent Right ascension09h 33m 55s
Apparent Declination12° 21' 38"
Sunlit
Object is in daylight
Visualization observer readout
Local Sidereal Time20:06:46
Azimuth334.086° NNW
Elevation-33.941°
Doppler factor1
Orbital elements
Apogee altitude906.982 km
Perigee altitude815.686 km
Semi-major axis7,239.471 km
Eccentricity0.0063054
Inclination98.7741°
RAAN232.847°
Arg. of periapsis357.8954°
True anomaly2.22198°
Mean anomaly2.1941°
Eccentric anomaly2.20802°
Mean motion3.52357 °/min
BSTAR0.0044805
Orbital period102.17 mins
Loading maneuver chart data...
Loading historical data...
Loading historical data...
Loading historical data...
Loading historical data...
Loading historical data...
Loading historical data...
Loading historical data...

NOAA 16 DEB Visibility forecast

Observer location: undefined°, undefined

Span
Click to sort rows by Start time (UTC) header in descending order
Start Az.
Max El. time (UTC)
Max El. Az.
Max El.
End time (UTC)
End Az.
9 mins2024-12-11 22:57:52.768Z138.96° SSE2024-12-11 23:01:52.768Z75.088° E35.972°2024-12-11 23:06:52.768Z359.165° N
6 mins2024-12-12 00:40:52.768Z234.988° WSW2024-12-12 00:42:52.768Z263.182° W19.428°2024-12-12 00:46:52.768Z313.459° NW
6 mins2024-12-12 11:22:52.768Z61.947° ENE2024-12-12 11:24:52.768Z90.562° ESE21.013°2024-12-12 11:28:52.768Z141.342° SSE
8 mins2024-12-12 13:02:52.768Z351.572° N2024-12-12 13:05:52.768Z297.821° NW35.555°2024-12-12 13:10:52.768Z220.044° SW
|